Wind_Speed
12 12 13 12 4 7 14 17 10 3 2 3 3 3 4 5 6 11 3 4 8 9 9 9 10 9 7 6 6 6 6 5 5 5 5 4 5 6 8 9 11 13 15 16 14 14 14 14 14
13 14 13 9 3 12 21 6 5 12 3 3 3 4 5 5 5 6 6 6 6 6 9 10 10 10 10 9 8 8 7 7 7 6 6 6 6 6 8 10 12 15 17 17 16 13 13 14 14
13 16 16 8 2 9 7 4 1 4 4 6 5 2 3 6 6 5 4 4 6 6 9 10 10 11 11 11 10 10 10 10 9 8 8 8 8 9 10 12 13 15 18 16 14 15 14 13 13
15 18 16 11 9 6 1 1 6 7 3 10 8 9 3 5 9 7 4 3 4 5 9 11 11 13 13 13 13 13 13 13 11 11 11 10 10 10 12 13 14 16 18 15 14 14 14 13 13
17 17 19 6 5 6 7 8 12 23 16 20 22 15 7 9 6 8 6 3 3 5 7 9 12 13 13 13 12 13 13 14 13 13 13 13 13 13 14 15 16 17 18 19 17 16 15 15 13
18 21 13 2 12 18 9 7 15 17 22 9 15 19 13 4 3 6 7 7 6 6 5 7 8 11 12 12 12 12 13 14 15 15 16 16 15 14 15 16 17 18 18 19 19 18 17 16 15
21 23 11 8 13 10 17 13 1 18 27 10 27 18 16 14 5 2 5 6 5 7 8 8 8 10 10 11 11 11 12 14 16 17 18 19 19 18 17 18 18 18 18 21 24 24 20 16 15
26 26 16 9 12 12 24 4 11 23 30 23 23 11 12 13 6 4 5 6 8 6 9 11 10 11 12 12 13 13 14 15 16 18 20 21 22 21 20 20 21 21 22 24 27 29 25 18 16
24 25 21 6 10 12 24 5 12 14 24 24 18 25 14 15 7 5 5 9 9 2 7 9 9 9 12 15 17 17 18 20 21 22 23 24 25 24 23 22 22 23 24 26 28 25 25 21 18
21 19 17 10 13 18 13 13 9 4 11 18 25 19 15 11 9 10 10 11 11 8 1 7 11 13 12 14 14 17 20 24 27 28 27 27 27 26 25 25 24 25 26 28 27 22 24 23 18
17 22 13 12 24 31 19 7 9 5 2 13 10 18 9 9 9 14 12 9 13 12 12 7 10 12 14 14 17 19 21 24 27 31 31 31 30 28 27 27 26 27 29 30 26 23 24 24 23
19 21 18 23 31 39 27 19 11 7 20 28 19 20 11 11 10 12 19 17 8 12 15 12 12 15 16 12 18 18 19 21 23 25 28 31 31 30 29 29 29 30 29 32 25 22 21 22 22
17 21 25 24 16 11 24 20 11 9 27 14 18 16 15 11 12 17 21 20 16 16 13 16 15 17 17 19 20 21 22 20 20 21 22 24 27 29 30 29 30 29 30 28 25 23 25 23 20
17 21 24 19 19 16 18 15 16 18 18 12 17 15 17 12 13 22 21 14 17 19 15 18 17 18 19 20 19 24 24 23 23 22 21 24 23 25 26 27 28 29 30 31 29 27 26 24 21
18 17 20 19 18 17 18 16 19 17 6 13 16 15 17 20 16 18 21 16 19 21 21 22 23 21 24 24 22 20 24 24 22 26 25 22 29 27 26 25 26 27 29 30 30 28 27 27 26
16 17 17 14 16 15 15 10 13 16 12 14 14 15 15 19 19 20 25 23 24 25 26 25 26 22 24 23 25 25 25 24 26 26 27 28 29 29 26 26 26 27 29 30 30 30 31 32 32
17 14 12 6 23 11 11 11 17 11 10 17 18 20 22 22 21 25 28 28 27 28 27 28 27 28 24 27 25 27 28 28 30 30 30 28 30 31 30 29 30 32 32 34 37 37 37 34 35
9 12 10 10 23 16 16 12 23 19 20 20 25 28 26 27 27 30 29 28 27 27 26 25 25 26 25 24 28 28 28 31 31 32 32 32 32 35 36 36 38 38 38 39 40 41 43 44 36
18 19 18 16 18 28 18 16 22 27 29 29 27 31 30 27 30 28 27 25 24 25 26 26 26 25 27 27 26 28 32 32 33 33 35 37 36 38 39 40 41 38 41 43 43 42 43 51 40
26 24 22 25 18 26 26 25 22 31 34 34 29 30 29 29 28 26 24 24 23 24 25 27 28 28 29 31 31 33 34 34 34 36 36 31 35 36 39 37 40 43 42 42 44 46 45 42 44
28 24 25 22 19 26 33 35 27 25 39 35 31 34 29 28 28 27 25 25 25 26 27 28 30 30 31 32 32 34 38 39 38 37 37 36 36 37 39 43 46 43 43 45 45 46 44 44 45
27 25 27 29 25 25 31 35 26 24 41 37 30 28 30 31 31 29 28 28 28 28 28 28 29 31 31 32 34 37 39 42 42 43 42 42 43 46 46 46 46 46 46 47 46 44 43 42 41
30 30 30 26 34 36 34 34 28 20 31 44 39 30 32 33 33 33 31 31 30 30 30 30 31 31 32 33 35 36 39 41 43 45 46 47 47 48 49 51 51 51 51 52 49 46 44 43 38
31 34 36 34 34 40 34 33 32 27 33 37 42 38 33 35 34 33 33 34 33 32 33 34 34 35 35 35 35 36 38 41 43 46 47 49 50 50 52 53 53 53 52 51 50 49 46 44 41
34 35 37 35 36 40 30 30 34 27 30 43 44 46 35 33 36 36 37 36 37 35 35 36 37 38 38 39 38 38 39 42 44 45 48 49 49 51 53 54 55 55 55 53 51 51 48 45 41
32 35 36 32 28 27 20 26 29 27 35 35 44 46 42 38 40 39 39 39 40 40 40 38 39 40 40 40 41 42 43 44 47 48 49 50 50 50 51 52 53 54 55 54 53 53 50 45 42
35 38 33 34 36 37 35 27 23 32 40 43 46 44 45 47 45 44 42 43 43 42 42 42 42 41 41 42 43 45 46 46 46 47 48 49 50 50 49 50 50 52 53 54 55 53 50 45 40
38 32 31 33 38 38 40 39 34 33 39 45 48 44 43 47 49 45 38 43 46 45 44 43 43 43 43 43 44 44 44 43 43 44 46 47 47 48 49 48 49 50 52 52 53 53 51 47 43
31 34 40 41 38 39 41 36 30 40 37 48 52 56 48 53 43 39 45 52 49 46 46 43 43 42 42 41 41 40 40 41 42 43 43 44 44 45 46 46 47 48 49 50 51 51 51 50 45
38 42 37 41 47 46 47 38 28 32 38 46 48 50 50 60 41 50 53 46 47 45 47 44 42 41 37 36 37 38 39 40 40 40 41 42 43 45 46 48 49 49 49 50 50 49 49 47 45
Wind_Direction
178 161 144 136 171 148 82 71 102 284 192 56 10 328 288 281 279 300 245 219 231 231 227 225 229 239 241 237 239 243 255 274 291 291 295 311 329 349 355 357 356 357 355 353 351 354 356 357 356
173 155 146 143 334 8 93 164 225 244 2 69 351 290 302 318 320 307 282 259 244 240 241 244 248 241 239 239 246 255 263 274 284 286 293 300 315 327 336 340 349 350 349 347 349 344 350 355 355
167 148 145 131 357 33 117 159 8 283 290 298 284 249 261 333 333 322 321 264 249 247 246 239 244 250 246 245 247 255 262 271 278 285 289 296 309 317 324 331 343 344 348 345 349 351 343 350 352
168 157 152 44 39 176 191 186 122 297 144 251 268 231 251 319 341 326 302 287 292 269 249 245 244 243 247 249 250 254 258 266 274 282 286 290 296 310 317 324 333 342 349 350 350 350 351 342 341
175 153 151 83 247 273 278 240 189 213 192 183 246 251 275 288 341 319 304 273 277 293 276 253 248 241 240 243 251 257 262 265 269 274 277 284 291 304 311 319 325 331 342 345 341 341 344 343 334
174 145 126 108 274 257 267 218 250 254 236 203 217 261 116 7 349 289 254 245 243 258 254 255 250 249 246 243 244 249 256 259 264 270 276 281 287 295 303 309 313 322 330 335 332 331 333 339 334
172 162 151 277 229 258 254 226 135 264 267 288 248 239 218 52 11 329 252 251 227 260 253 261 270 267 260 256 251 252 259 263 267 274 278 283 288 291 293 296 302 310 318 326 328 323 322 316 329
178 159 143 110 274 249 269 221 186 273 292 246 252 224 98 64 351 313 310 281 275 267 278 265 268 272 274 272 269 268 263 264 269 272 276 278 281 284 286 291 298 304 315 325 328 321 316 312 314
189 156 118 132 245 258 270 189 230 235 284 315 6 332 14 20 326 307 300 281 290 281 291 287 273 281 289 282 279 283 284 283 276 272 271 273 277 281 284 288 293 303 313 321 324 318 311 309 305
196 172 111 273 190 231 247 184 223 169 320 331 321 325 12 346 333 313 285 278 282 317 315 310 300 292 293 306 298 304 303 294 284 279 276 276 279 283 289 293 299 304 312 315 320 317 309 309 304
200 169 127 267 211 214 220 222 256 168 15 240 194 294 321 311 314 322 305 295 305 310 312 321 316 304 303 312 314 315 316 316 307 288 282 283 285 289 292 297 301 303 306 310 317 311 307 313 313
206 191 178 255 226 229 242 254 227 201 228 223 244 287 287 301 301 337 333 323 307 303 310 322 317 312 314 320 313 320 316 319 316 312 296 290 292 296 298 297 298 302 304 307 312 311 308 296 302
220 215 216 241 245 232 239 242 224 260 249 235 267 274 292 281 307 320 309 298 308 306 306 306 313 314 313 316 317 318 316 319 309 313 311 304 300 299 301 304 304 303 304 306 308 306 309 310 317
231 230 233 251 246 244 250 237 255 250 245 247 258 282 285 263 289 301 289 282 303 296 302 297 302 305 305 305 307 310 315 316 306 302 302 302 307 310 310 311 308 308 312 313 318 314 312 309 304
226 238 238 247 252 254 261 244 245 242 189 248 254 257 266 283 276 283 279 285 289 292 297 297 297 299 298 296 296 295 303 307 305 301 301 295 301 304 307 306 307 307 309 314 316 314 308 302 302
236 240 247 251 251 251 256 249 240 247 248 259 261 263 264 259 278 284 280 284 288 290 294 297 297 295 295 294 294 291 289 290 295 297 296 297 299 300 301 303 302 302 305 307 305 303 303 303 302
233 245 248 233 259 260 247 238 234 230 264 273 277 272 273 279 281 278 279 282 285 287 290 291 290 292 290 290 286 286 287 287 289 290 291 292 297 298 298 295 294 296 299 303 303 301 300 298 298
244 289 248 243 265 254 260 235 241 257 270 265 272 276 276 279 278 277 280 285 286 290 293 292 295 297 296 289 291 292 289 290 291 291 291 292 292 291 292 297 299 301 304 299 301 305 300 294 289
182 239 245 239 235 265 247 252 263 273 273 273 275 276 278 275 273 274 279 284 288 291 293 294 293 297 298 295 290 288 290 289 287 287 289 292 292 292 290 293 299 302 302 305 307 315 314 318 294
199 224 199 214 232 253 262 264 261 261 279 282 280 277 273 270 269 272 278 282 285 289 289 288 290 290 289 291 290 291 290 290 290 288 294 292 289 279 289 291 295 295 295 297 301 307 304 308 311
224 227 231 242 244 257 263 267 267 251 268 279 280 278 271 269 267 268 272 275 282 287 289 289 289 288 287 286 285 285 286 287 289 290 289 289 285 285 285 287 287 290 291 291 295 298 300 301 304
237 241 247 252 245 247 266 276 269 258 256 281 274 278 275 269 267 269 271 274 281 285 285 284 284 285 284 285 284 283 284 285 286 286 284 283 281 282 284 286 287 290 290 292 294 295 296 297 301
249 250 254 255 257 251 245 255 268 253 271 273 287 284 270 270 271 271 274 278 281 285 287 288 287 285 284 283 282 281 281 283 283 284 285 286 286 285 287 289 290 288 291 287 291 292 292 293 297
253 256 256 253 254 261 259 258 261 254 265 278 278 277 276 274 272 275 278 280 283 285 288 289 289 289 287 285 282 281 280 280 281 283 284 284 286 287 287 287 287 287 288 288 288 289 291 291 297
256 252 255 256 254 265 264 268 283 272 240 262 269 273 279 281 278 278 279 282 284 285 286 286 287 287 287 286 285 284 283 282 280 280 280 281 281 282 283 284 286 287 289 291 290 288 289 289 287
260 257 255 253 253 276 287 281 282 267 245 239 252 286 291 283 275 277 279 281 283 285 285 285 285 285 284 284 285 285 284 283 282 283 282 282 282 282 282 283 285 286 288 288 287 288 288 286 281
254 246 257 245 235 234 236 226 277 258 261 265 266 269 275 275 279 278 279 282 285 285 286 287 285 284 282 282 282 283 282 282 281 281 281 282 282 283 283 285 285 286 286 286 286 287 286 282 278
262 253 237 251 258 262 258 243 233 279 262 254 258 264 267 269 270 271 280 288 288 286 285 285 284 284 284 285 285 284 284 283 282 281 281 281 282 283 285 285 285 285 286 287 286 286 283 280 278
240 247 255 243 232 252 258 252 252 242 260 259 266 270 273 265 263 266 284 287 286 285 284 285 285 287 287 285 284 284 283 282 282 282 283 285 286 287 287 287 287 287 286 285 285 283 282 280 277
243 248 241 255 263 249 242 250 257 259 255 267 263 270 283 283 257 269 280 286 285 284 285 285 286 286 286 285 285 285 286 285 285 286 286 287 288 288 289 287 286 285 283 281 281 280 280 279 275
Height
5921 5924 5926 5926 5927 5923 5922 5924 5931 5925 5926 5926 5926 5925 5923 5924 5923 5923 5918 5921 5920 5922 5922 5922 5924 5925 5925 5925 5925 5924 5924 5925 5925 5925 5924 5924 5924 5923 5922 5921 5921 5920 5919 5918 5916 5914 5912 5911 5909
5920 5924 5927 5927 5927 5923 5925 5933 5929 5928 5928 5927 5926 5923 5922 5923 5923 5924 5922 5922 5921 5921 5921 5922 5923 5924 5924 5924 5924 5924 5924 5924 5924 5924 5924 5923 5923 5922 5922 5921 5920 5919 5919 5917 5916 5914 5912 5910 5909
5920 5925 5928 5927 5926 5927 5930 5932 5930 5930 5930 5927 5926 5924 5923 5921 5922 5922 5922 5921 5921 5921 5921 5921 5922 5922 5922 5922 5922 5922 5922 5923 5923 5922 5922 5922 5922 5922 5921 5920 5919 5919 5917 5916 5915 5914 5912 5910 5909
5919 5924 5927 5927 5928 5933 5931 5930 5931 5929 5930 5926 5920 5924 5923 5921 5920 5920 5920 5920 5920 5919 5920 5920 5920 5920 5920 5920 5920 5920 5921 5921 5922 5921 5921 5920 5921 5920 5920 5919 5919 5918 5916 5915 5914 5913 5912 5910 5909
5916 5923 5927 5927 5936 5932 5929 5928 5929 5922 5925 5913 5917 5918 5921 5922 5920 5920 5919 5919 5920 5919 5919 5918 5918 5917 5918 5918 5919 5919 5920 5920 5920 5920 5919 5919 5919 5919 5918 5918 5917 5916 5915 5914 5912 5911 5910 5908 5907
5916 5921 5922 5928 5936 5930 5929 5927 5926 5924 5916 5902 5909 5913 5914 5919 5919 5919 5918 5919 5919 5918 5918 5917 5917 5917 5917 5917 5917 5917 5917 5917 5918 5918 5917 5916 5917 5917 5917 5916 5916 5916 5914 5913 5911 5910 5909 5907 5905
5914 5916 5918 5927 5930 5930 5926 5926 5932 5919 5912 5906 5909 5909 5911 5915 5919 5918 5917 5916 5917 5917 5917 5917 5917 5916 5916 5916 5916 5916 5916 5916 5916 5916 5915 5915 5914 5914 5914 5914 5914 5914 5913 5911 5908 5906 5906 5905 5903
5911 5910 5916 5925 5931 5930 5924 5927 5927 5914 5914 5912 5906 5909 5911 5913 5918 5917 5915 5914 5914 5916 5915 5915 5915 5916 5915 5915 5916 5915 5915 5915 5915 5914 5913 5912 5912 5912 5912 5913 5912 5912 5912 5911 5908 5904 5903 5903 5902
5907 5916 5916 5926 5931 5928 5923 5926 5924 5922 5915 5907 5887 5903 5908 5914 5918 5915 5913 5911 5910 5913 5914 5914 5914 5914 5915 5915 5915 5915 5915 5914 5913 5912 5911 5910 5909 5909 5910 5911 5911 5911 5911 5910 5907 5903 5901 5900 5899
5905 5912 5913 5922 5924 5924 5921 5920 5921 5924 5923 5910 5904 5906 5912 5917 5915 5913 5911 5910 5910 5910 5912 5914 5914 5913 5914 5914 5914 5914 5913 5912 5911 5910 5909 5909 5909 5908 5909 5910 5910 5910 5909 5907 5905 5902 5899 5898 5898
5905 5910 5909 5916 5917 5914 5915 5917 5920 5922 5927 5919 5917 5914 5916 5916 5915 5913 5912 5912 5910 5910 5909 5911 5912 5912 5913 5913 5912 5911 5911 5910 5908 5908 5908 5907 5907 5908 5908 5908 5908 5908 5906 5904 5903 5900 5898 5896 5896
5902 5905 5907 5909 5909 5911 5914 5915 5917 5920 5917 5917 5918 5915 5915 5915 5914 5915 5914 5911 5911 5910 5909 5908 5909 5910 5909 5912 5909 5909 5909 5907 5906 5905 5904 5905 5905 5904 5905 5906 5905 5903 5903 5901 5901 5898 5897 5897 5896
5900 5902 5903 5904 5906 5908 5909 5911 5913 5916 5910 5916 5916 5913 5913 5913 5913 5913 5913 5912 5911 5908 5909 5907 5908 5906 5906 5905 5906 5906 5904 5905 5903 5903 5901 5901 5900 5900 5900 5901 5900 5901 5900 5900 5897 5896 5894 5895 5894
5898 5899 5901 5902 5904 5904 5905 5906 5907 5910 5908 5911 5911 5911 5909 5910 5909 5910 5908 5909 5908 5907 5907 5905 5906 5904 5904 5903 5903 5901 5901 5900 5899 5899 5900 5897 5897 5897 5897 5897 5896 5895 5894 5893 5894 5894 5892 5891 5891
5894 5897 5897 5899 5900 5901 5902 5903 5903 5904 5906 5907 5906 5906 5908 5906 5906 5906 5904 5907 5906 5904 5904 5902 5902 5902 5901 5900 5899 5899 5898 5896 5897 5895 5895 5895 5892 5893 5892 5892 5892 5891 5890 5890 5888 5888 5888 5887 5887
5892 5893 5894 5897 5897 5899 5900 5901 5903 5900 5902 5902 5902 5903 5903 5903 5904 5903 5901 5902 5902 5901 5900 5899 5897 5900 5897 5898 5896 5895 5894 5894 5892 5891 5891 5890 5889 5888 5887 5887 5886 5886 5885 5885 5884 5883 5883 5883 5884
5889 5891 5892 5894 5895 5896 5897 5898 5898 5898 5899 5899 5899 5899 5897 5900 5900 5899 5896 5897 5897 5896 5896 5894 5894 5893 5895 5893 5893 5891 5890 5890 5887 5887 5886 5887 5885 5884 5883 5882 5880 5879 5880 5880 5878 5877 5877 5875 5874
5888 5890 5892 5896 5893 5893 5894 5896 5892 5894 5896 5897 5895 5893 5894 5895 5895 5892 5892 5891 5892 5891 5890 5890 5890 5889 5889 5889 5887 5886 5886 5885 5883 5882 5882 5881 5881 5879 5877 5876 5875 5875 5875 5873 5872 5871 5871 5868 5864
5886 5890 5894 5896 5896 5889 5891 5891 5890 5889 5890 5890 5890 5889 5887 5891 5888 5888 5887 5887 5887 5887 5886 5886 5885 5885 5883 5883 5883 5882 5880 5879 5878 5877 5876 5875 5875 5873 5872 5871 5869 5870 5867 5866 5864 5864 5864 5861 5856
5879 5882 5885 5888 5890 5886 5885 5886 5888 5884 5882 5883 5883 5883 5882 5883 5883 5883 5883 5883 5883 5882 5882 5881 5881 5881 5880 5878 5877 5875 5874 5872 5871 5870 5870 5871 5869 5865 5865 5865 5864 5863 5863 5861 5859 5856 5854 5856 5853
5874 5877 5879 5881 5884 5882 5880 5878 5882 5882 5874 5877 5877 5874 5876 5877 5877 5877 5877 5877 5877 5877 5876 5875 5874 5874 5874 5873 5871 5869 5866 5865 5864 5865 5864 5863 5861 5860 5859 5857 5855 5854 5853 5851 5850 5849 5847 5847 5844
5869 5873 5873 5874 5875 5877 5874 5870 5873 5876 5868 5867 5870 5869 5869 5869 5870 5871 5871 5871 5871 5871 5870 5869 5868 5867 5867 5866 5864 5862 5860 5858 5856 5856 5855 5855 5854 5852 5850 5849 5847 5844 5843 5842 5841 5840 5839 5837 5837
5864 5865 5865 5867 5865 5866 5867 5866 5867 5870 5864 5858 5859 5864 5862 5861 5862 5862 5863 5863 5863 5863 5862 5861 5861 5860 5859 5858 5856 5854 5852 5851 5849 5847 5845 5844 5843 5842 5840 5837 5835 5834 5833 5834 5830 5830 5829 5829 5830
5858 5857 5856 5857 5857 5853 5858 5860 5859 5862 5858 5854 5850 5853 5855 5854 5853 5854 5854 5854 5855 5854 5853 5853 5852 5851 5850 5849 5847 5846 5844 5843 5841 5838 5836 5834 5833 5833 5829 5826 5825 5824 5822 5822 5820 5819 5817 5817 5816
5848 5849 5848 5848 5847 5847 5852 5851 5851 5853 5855 5844 5838 5843 5849 5847 5846 5845 5845 5845 5845 5846 5845 5844 5843 5842 5841 5839 5837 5835 5834 5832 5830 5829 5826 5825 5824 5823 5820 5817 5814 5812 5810 5809 5808 5807 5806 5804 5805
5839 5839 5839 5840 5842 5844 5848 5844 5844 5846 5844 5842 5830 5832 5838 5839 5838 5837 5836 5837 5836 5835 5835 5835 5834 5833 5831 5829 5826 5824 5823 5822 5818 5816 5815 5813 5813 5812 5810 5808 5806 5803 5800 5798 5796 5794 5792 5792 5791
5833 5827 5834 5832 5833 5833 5837 5841 5835 5833 5833 5832 5831 5831 5831 5827 5827 5828 5828 5826 5826 5825 5824 5824 5823 5822 5820 5818 5816 5813 5812 5810 5808 5806 5804 5802 5801 5800 5799 5797 5795 5792 5789 5786 5784 5782 5781 5781 5780
5815 5824 5824 5822 5822 5822 5825 5828 5831 5828 5824 5819 5815 5820 5822 5818 5816 5817 5818 5816 5815 5814 5813 5812 5811 5810 5809 5807 5805 5803 5800 5798 5797 5795 5793 5792 5790 5789 5788 5787 5784 5782 5779 5776 5773 5771 5770 5771 5772
5812 5807 5812 5815 5814 5813 5812 5816 5820 5820 5813 5810 5804 5803 5810 5805 5805 5806 5806 5805 5802 5802 5801 5801 5799 5799 5797 5795 5793 5791 5789 5787 5786 5785 5783 5782 5779 5777 5776 5775 5773 5771 5768 5765 5763 5760 5760 5759 5760
5803 5796 5802 5796 5800 5805 5803 5804 5809 5809 5802 5797 5804 5800 5798 5796 5795 5792 5794 5793 5791 5792 5789 5792 5788 5787 5787 5784 5782 5780 5778 5777 5775 5774 5773 5771 5769 5767 5764 5762 5760 5759 5757 5754 5752 5750 5748 5748 5747